TimeCDT,TemperatureF,Dew PointF,Humidity,Sea Level PressureIn,VisibilityMPH,Wind Direction,Wind SpeedMPH,Gust SpeedMPH,PrecipitationIn,Events,Conditions,WindDirDegrees,DateUTC
12:52 AM,63.0,61.0,93,30.15,10.0,Calm,Calm,-,N/A,,Clear,0,2013-08-10 05:52:00
1:52 AM,61.0,60.1,97,30.16,10.0,NNW,3.5,-,N/A,,Clear,340,2013-08-10 06:52:00
2:52 AM,63.0,60.1,90,30.16,10.0,Calm,Calm,-,N/A,,Clear,0,2013-08-10 07:52:00
3:52 AM,60.1,59.0,96,30.17,8.0,Calm,Calm,-,N/A,Fog,Patches of Fog,0,2013-08-10 08:52:00
4:52 AM,57.9,57.0,97,30.17,8.0,NNW,3.5,-,N/A,Fog,Patches of Fog,330,2013-08-10 09:52:00
5:52 AM,59.0,57.9,96,30.17,10.0,Calm,Calm,-,N/A,Fog,Patches of Fog,0,2013-08-10 10:52:00
6:52 AM,57.0,55.9,96,30.18,8.0,North,3.5,-,N/A,Fog,Patches of Fog,350,2013-08-10 11:52:00
7:52 AM,63.0,59.0,87,30.18,10.0,Calm,Calm,-,N/A,,Scattered Clouds,0,2013-08-10 12:52:00
8:52 AM,66.9,57.9,73,30.19,10.0,SE,4.6,-,N/A,,Scattered Clouds,130,2013-08-10 13:52:00
9:52 AM,73.0,57.0,57,30.19,10.0,South,9.2,-,N/A,,Scattered Clouds,170,2013-08-10 14:52:00
10:52 AM,75.0,57.9,55,30.20,10.0,South,8.1,-,N/A,,Mostly Cloudy,170,2013-08-10 15:52:00
11:52 AM,78.1,57.9,50,30.20,10.0,South,6.9,-,N/A,,Mostly Cloudy,180,2013-08-10 16:52:00
12:52 PM,80.1,57.0,45,30.19,10.0,South,9.2,-,N/A,,Mostly Cloudy,170,2013-08-10 17:52:00
1:52 PM,80.1,57.0,45,30.17,10.0,SSW,4.6,-,N/A,,Mostly Cloudy,200,2013-08-10 18:52:00
2:52 PM,82.9,57.9,42,30.15,10.0,South,11.5,-,N/A,,Scattered Clouds,180,2013-08-10 19:52:00
3:52 PM,84.0,57.9,41,30.13,10.0,South,9.2,-,N/A,,Scattered Clouds,180,2013-08-10 20:52:00
4:52 PM,84.0,57.9,41,30.11,10.0,SSE,12.7,-,N/A,,Scattered Clouds,160,2013-08-10 21:52:00
5:52 PM,84.0,59.0,43,30.10,10.0,SSE,11.5,-,N/A,,Scattered Clouds,160,2013-08-10 22:52:00
6:52 PM,82.9,57.9,42,30.09,10.0,South,10.4,-,N/A,,Partly Cloudy,190,2013-08-10 23:52:00
7:52 PM,81.0,59.0,47,30.08,10.0,South,8.1,-,N/A,,Partly Cloudy,180,2013-08-11 00:52:00
8:52 PM,75.9,60.1,58,30.08,10.0,SSE,8.1,-,N/A,,Partly Cloudy,160,2013-08-11 01:52:00
9:52 PM,73.0,60.1,64,30.08,10.0,SSE,8.1,-,N/A,,Partly Cloudy,150,2013-08-11 02:52:00
10:52 PM,73.0,59.0,61,30.08,10.0,South,8.1,-,N/A,,Partly Cloudy,180,2013-08-11 03:52:00
11:52 PM,73.0,59.0,61,30.07,10.0,SSE,9.2,-,N/A,,Partly Cloudy,160,2013-08-11 04:52:00